Wetbulb
32.35 33.69 33.36 33.07 34.08 35.26 36.61 36.41 36.96 40.60 41.11 41.18 41.51 42.45 43.00 43.09 43.79 44.01 44.75 45.33 46.50 48.37 49.29 50.90 52.45 53.00 54.82
30.64 31.21 31.22 32.64 33.16 33.12 34.75 36.64 35.63 38.49 39.60 40.05 39.66 40.29 40.69 41.39 42.45 43.49 43.84 44.65 45.54 46.94 48.20 49.33 49.31 50.57 52.93
28.39 31.03 31.31 32.16 31.63 32.38 32.50 32.58 34.46 36.25 37.33 38.31 38.96 39.42 40.33 41.02 41.42 42.19 42.78 42.03 43.09 43.47 45.15 46.60 48.12 50.53 52.18
29.45 29.45 29.74 31.14 31.30 28.88 27.65 29.67 29.04 32.45 34.54 36.14 37.65 37.92 39.05 39.52 39.62 40.57 41.74 42.09 42.33 43.79 44.39 45.22 47.07 48.20 49.88
27.58 28.29 27.61 27.40 25.84 26.73 25.46 27.00 27.99 29.92 30.38 29.93 31.13 32.11 33.27 36.58 37.87 39.38 40.44 41.40 41.45 42.38 43.66 44.64 45.20 46.35 48.39
27.50 25.68 25.57 25.91 26.31 25.12 25.29 24.47 24.40 29.41 27.20 27.13 30.29 30.04 32.21 34.75 37.88 39.67 39.78 39.81 40.38 41.09 41.97 43.16 43.18 44.87 46.50
24.80 24.41 26.00 27.17 26.55 26.75 27.39 26.90 24.54 27.21 27.68 26.07 29.93 29.22 31.84 33.74 36.81 37.57 38.58 39.00 38.47 39.95 40.91 42.12 42.45 44.29 45.49
28.09 28.63 29.17 29.65 28.84 27.93 26.64 26.25 26.82 28.02 29.05 24.78 28.08 26.48 29.88 32.39 35.18 35.21 36.48 37.74 39.45 38.82 38.98 40.48 41.24 42.12 42.89
33.21 33.03 32.01 31.87 31.03 27.69 24.91 23.95 22.00 23.50 26.96 25.36 25.30 25.75 27.24 28.36 31.33 35.29 36.71 35.46 35.82 36.32 37.35 38.39 39.33 40.21 40.39
25.25 25.79 27.55 27.01 30.64 27.85 26.24 22.66 21.99 20.78 24.89 23.38 24.41 25.43 23.57 28.14 29.79 30.56 31.00 34.23 34.63 35.44 36.54 37.70 38.84 37.62 37.56
23.18 23.93 24.80 25.73 26.43 26.51 26.48 24.82 22.50 21.86 25.94 26.54 25.21 24.95 24.90 24.41 27.47 29.47 28.60 28.81 29.15 30.57 35.69 38.21 40.01 44.05 39.42
22.63 23.00 23.07 22.88 23.81 24.53 25.44 25.72 26.47 25.95 27.72 27.67 25.42 25.62 25.06 24.68 22.78 26.32 26.55 27.81 29.40 31.50 32.14 35.55 38.98 42.36 45.48
22.59 21.84 22.91 23.92 24.50 24.78 25.82 26.89 26.97 27.53 28.90 29.47 28.18 27.06 22.87 22.41 21.15 22.53 25.33 26.35 29.12 31.63 31.94 32.60 33.65 35.74 36.64
22.68 23.35 23.89 23.45 23.30 24.58 23.94 24.36 25.02 26.35 28.37 28.01 26.04 24.23 22.33 21.64 23.91 24.00 26.01 24.07 30.12 31.65 31.84 32.89 33.76 36.54 38.86
22.60 22.19 22.50 22.61 22.81 23.91 24.37 24.89 24.10 24.90 24.54 26.21 25.75 24.85 24.05 22.58 24.50 27.39 28.15 28.53 31.03 31.41 32.17 32.10 32.57 35.02 38.04
21.92 21.60 21.43 21.77 21.89 24.18 24.61 24.16 22.38 23.28 23.22 24.68 22.89 20.79 22.17 25.48 29.38 26.23 27.86 28.17 29.46 30.99 31.84 31.88 31.42 32.59 37.30
21.51 21.68 21.63 21.46 22.42 22.61 23.61 24.02 22.61 23.07 23.95 24.61 21.54 19.62 18.50 18.07 24.92 32.31 27.18 28.30 29.58 29.52 31.39 31.96 32.07 33.53 35.33
MSLP
1007.01 1006.26 1005.69 1005.16 1004.30 1003.76 1003.25 1002.54 1001.60 1000.72 1000.08 999.29 998.32 997.57 996.70 995.95 995.26 994.66 994.26 993.48 992.80 992.21 991.76 991.09 990.55 990.18 989.62
1006.69 1006.13 1005.58 1004.69 1003.85 1003.00 1002.17 1001.61 1000.95 1000.17 999.54 998.52 997.74 996.79 996.07 995.29 994.64 993.82 993.16 992.66 991.98 991.41 990.91 990.58 989.89 989.56 989.31
1006.37 1005.65 1004.83 1004.21 1003.02 1002.16 1001.55 1000.91 1000.29 999.77 998.94 997.82 997.07 996.37 995.32 994.35 993.57 992.87 992.27 992.28 991.43 990.71 990.26 989.60 989.23 988.43 987.90
1006.11 1005.12 1004.38 1003.53 1003.32 1002.16 1000.88 1000.34 999.38 998.95 998.13 997.33 996.46 995.70 994.65 993.83 993.06 992.14 991.39 990.71 990.43 989.63 989.17 988.60 988.26 988.00 987.63
1005.55 1004.67 1003.86 1003.08 1002.60 1001.73 1000.62 999.56 998.54 998.09 997.17 996.39 995.80 994.84 993.93 993.11 992.24 991.27 990.47 989.94 989.67 989.17 988.36 987.84 987.27 986.89 986.53
1005.20 1004.11 1003.26 1002.61 1001.97 1001.23 1000.17 998.94 997.07 997.55 996.65 995.29 995.24 993.77 993.10 992.35 991.45 990.50 989.77 989.15 988.63 988.11 987.53 986.90 986.81 986.04 985.46
1004.60 1003.81 1002.83 1002.25 1001.37 1000.25 999.32 998.48 997.44 996.56 996.25 994.45 993.90 992.93 992.32 991.41 990.64 989.81 989.18 988.56 987.93 987.35 986.85 986.31 985.87 985.47 985.04
1003.88 1002.99 1002.25 1001.29 1000.52 999.54 998.73 997.76 996.69 995.90 995.47 993.89 993.17 992.27 991.46 990.80 990.21 989.47 988.61 987.76 987.13 986.99 986.49 985.65 985.12 984.78 984.48
1003.01 1002.17 1001.40 1000.65 999.83 998.82 998.12 997.30 995.66 995.08 994.84 993.84 992.64 991.61 990.89 989.84 989.17 988.29 987.67 987.07 986.38 985.97 985.31 984.75 984.39 983.92 983.42
1002.30 1001.58 1000.83 1000.11 999.32 998.65 997.77 996.81 995.64 994.25 994.07 993.36 992.04 991.37 989.71 988.72 988.06 987.67 986.97 986.43 985.54 984.69 984.01 983.28 982.73 982.69 982.30
1001.68 1000.86 1000.02 999.28 998.63 998.01 997.33 996.53 995.21 993.93 993.02 992.40 991.34 990.50 989.90 988.28 987.06 986.60 986.27 985.50 984.63 983.60 982.50 981.41 980.39 979.20 979.69
1001.29 1000.33 999.61 998.82 998.04 997.22 996.33 995.43 994.49 993.33 992.15 991.63 990.53 989.82 988.80 987.80 986.92 985.93 985.45 984.67 983.79 982.56 981.44 980.21 979.15 978.19 978.03
1000.95 1000.12 999.38 998.43 997.38 996.30 995.26 994.17 993.12 992.03 991.16 990.55 990.03 989.26 989.06 988.37 987.32 986.08 985.12 983.85 983.21 982.21 981.27 980.41 979.52 978.59 977.78
1000.64 999.78 998.73 997.69 996.75 995.80 994.72 993.51 992.35 991.07 990.51 990.08 989.69 989.34 988.79 988.09 987.24 985.90 985.18 984.75 983.31 982.44 981.68 980.74 979.79 978.86 978.04
1000.36 999.32 998.24 997.25 996.24 995.32 994.34 993.29 992.34 991.17 990.36 989.66 989.19 988.68 988.28 988.05 986.95 985.97 985.10 984.38 983.62 982.88 982.05 981.27 980.74 980.03 979.20
999.97 999.07 998.04 997.04 995.99 994.87 994.10 993.32 992.59 991.61 990.71 989.87 989.26 988.30 987.74 987.58 987.16 986.30 985.47 984.89 984.26 983.50 982.87 982.28 982.17 981.97 981.34
999.67 998.68 997.79 996.83 995.75 994.76 993.87 993.13 992.38 991.66 990.87 990.25 989.79 989.27 988.65 988.27 987.59 986.66 986.09 985.65 985.07 984.47 984.17 983.78 983.58 983.73 983.46
Wind_Speed
13 15 17 17 17 15 14 14 15 26 31 34 34 35 34 34 34 34 34 36 33 31 31 31 29 25 27
15 13 16 17 16 18 13 12 13 20 31 34 37 36 35 35 35 34 33 31 30 28 25 26 25 26 29
16 13 13 13 16 15 14 13 11 24 29 31 31 33 33 33 34 34 28 28 32 27 29 25 26 24 22
13 12 13 15 11 12 14 12 14 12 21 24 27 31 31 31 34 32 28 27 29 28 26 25 22 23 24
13 12 13 13 12 12 14 15 15 13 10 14 12 13 15 23 23 28 28 26 27 30 24 24 25 25 22
13 15 19 15 11 13 14 16 16 7 12 15 12 14 12 11 25 30 28 29 27 30 27 25 25 27 25
18 17 17 13 16 17 15 13 15 13 14 16 11 10 11 13 25 28 31 29 32 28 24 25 25 25 24
16 15 15 17 16 15 17 17 14 11 11 16 9 13 12 10 24 32 32 29 19 21 27 25 25 24 25
27 28 29 31 25 14 11 12 15 12 10 12 12 13 12 12 13 25 21 27 28 28 27 27 27 29 23
12 16 18 17 26 15 12 13 14 14 10 11 13 11 11 12 5 10 10 18 27 25 26 28 30 15 13
13 12 12 12 10 11 13 12 13 14 15 13 11 12 9 10 9 8 4 10 11 15 23 24 26 23 14
12 12 12 12 12 13 15 14 13 17 17 16 10 12 12 8 8 8 10 10 9 10 8 12 13 7 25
11 12 11 12 14 13 13 15 15 15 12 10 9 6 4 6 8 9 11 6 9 7 6 6 6 4 3
12 12 12 10 11 10 11 12 12 7 6 6 5 6 4 5 9 10 7 5 6 6 6 5 8 7 5
11 12 12 11 11 11 10 10 11 8 9 6 7 8 6 6 7 6 4 3 4 5 4 7 9 10 11
11 11 11 11 11 10 10 7 9 9 9 8 8 7 2 2 6 6 4 4 5 7 6 9 11 10 13
11 11 11 10 15 11 10 7 9 9 8 6 6 5 6 4 4 14 4 4 5 10 8 8 9 9 11
Wind_Direction
304 307 309 306 306 301 296 291 290 298 297 307 304 303 299 299 296 298 295 299 294 294 290 282 279 280 275
299 302 297 301 298 298 298 295 293 297 301 303 302 298 300 302 298 292 293 297 302 294 295 284 291 283 276
292 293 295 298 295 298 298 300 293 305 302 297 306 302 295 299 299 298 298 299 296 298 289 290 286 282 282
288 295 300 303 302 303 302 300 302 299 295 294 300 299 298 301 298 297 292 292 292 291 293 294 292 299 279
300 298 302 302 306 301 299 303 295 293 297 295 294 294 289 293 289 292 290 299 298 295 295 297 293 291 292
308 302 299 296 301 299 296 295 294 309 300 295 288 286 287 287 298 300 301 299 304 299 294 288 287 286 285
303 298 303 295 296 293 292 295 293 299 293 289 288 282 293 289 295 303 307 299 294 292 290 290 278 272 279
296 297 290 294 297 299 302 297 287 286 288 289 301 293 294 294 293 295 288 288 286 302 297 287 285 284 278
301 306 311 306 305 303 297 297 296 298 299 284 292 292 289 284 270 276 294 303 301 297 286 278 275 275 272
311 304 302 294 298 297 297 293 294 294 291 287 290 294 293 283 267 291 280 281 295 294 289 281 270 254 246
307 304 302 301 301 296 291 288 288 285 285 289 289 287 277 288 275 285 274 290 290 287 284 282 278 243 216
305 306 311 308 302 297 291 284 276 276 282 278 275 280 283 294 301 308 301 293 286 289 296 306 309 330 209
307 308 304 300 299 296 296 292 291 286 287 295 308 299 292 297 294 303 311 309 303 310 318 328 342 314 314
306 306 304 306 306 307 307 306 306 303 297 279 302 307 299 274 288 292 293 294 323 319 323 8 13 2 19
308 308 310 312 310 313 307 316 320 326 327 316 308 283 254 264 308 328 315 304 326 338 353 45 33 23 45
310 309 310 314 312 317 316 328 324 323 325 329 334 335 324 227 322 334 327 338 4 12 22 59 54 35 55
309 311 311 308 317 311 311 322 321 319 323 334 343 1 8 6 313 356 5 7 43 49 40 46 65 61 68